Погода в Илсхан-Юрте

Россия / Чеченская Республика     43°16′35″N   46°06′00″E
темп.,
°C
ветер,
м/с
пор.,
м/с
влажн.,
%
обл.,
%
осадки,
мм/ч
давл.,
гПа
погр.,
м
29 июля, чт
чт2900:00+17ююз1181100 0.0 101715
03:00+16ююз1184100 0.0 101616
06:00+17ююз117879 0.0 101642
09:00+24всв34473 0.0 1015848
12:00+31всв55233 0.0 10122095
15:00+32всв75205 0.0 10112329
18:00+29всв69253 0.0 1011795
21:00+21юв124417 0.0 101256
30 июля, пт
пт3000:00+19ююз22533 0.0 101218
03:00+18ююз11570 0.0 101218
06:00+20ю11550 0.0 101242
09:00+27ссв22340 0.0 1012731
12:00+32ссв23230 0.0 10101820
15:00+34св64180 0.0 10082353
18:00+30всв562511 0.0 1008751
21:00+22вюв124860 0.0 101054
31 июля, сб
сб3100:00+20ююз1157100 0.0 100918
03:00+20ююз226392 0.0 100919
06:00+20ююз127559 1.6 101049
09:00+26з12613 3.4 1010364
12:00+32с22332 0.0 10091563
15:00+34ссз32271 0.0 10072306
18:00+32зсз233295 0.0 1008315
21:00+24ююз11503 0.0 101016
1 августа, вс
вс100:00+23ююз23635 0.0 101052
03:00+22юз226383 0.0 101034
06:00+23юз22595 0.0 101172
09:00+30зсз32375 0.0 1010802
12:00+35с22245 0.0 10092232
15:00+37с13205 0.0 10072826
18:00+35зсз1322100 0.0 1007318
21:00+25ю225190 0.0 100937
2 августа, пн
пн200:00+24ююз2254100 0.0 100927
03:00+23ююз225295 0.0 100921
06:00+25ююз114888 0.0 101048
09:00+32ссв223118 0.0 1010792
12:00+37ссв332420 0.0 10082213
15:00+39с331968 0.0 10063532
18:00+32юв23380 0.0 1007204
21:00+26ю22540 0.0 100921